Paris, TX

2:06 AM CDT on March 24, 2017 (GMT -0500)
Cox

Weather History for KPRX - July, 2013

Change the Weather History Date:

Tuesday, July 23, 2013

  Actual Average Record
Temperature  
Mean Temperature 86 °F -  
Max Temperature 96 °F 91 °F 100 °F (1998)
Min Temperature 77 °F 70 °F 68 °F (2007)
Cooling Degree Days 22    
Growing Degree Days 36 (Base 50)    
Moisture  
Dew Point 71 °F    
Average Humidity 62    
Maximum Humidity 74    
Minimum Humidity 47    
Precipitation  
Precipitation 0.00 in - - ()
Sea Level Pressure  
Sea Level Pressure 29.93 in    
Wind  
Wind Speed 10 mph (SSW)    
Max Wind Speed 18 mph    
Max Gust Speed 23 mph    
Visibility 10 miles    
Events      
Averages and records for this station are not official NWS values.
T = Trace of Precipitation, MM = Missing Value Source: NWS Daily Summary

Daily Weather History Graph

Daily Weather History Graph

Search for Another Location

Airport or City:

Trip Planner

Search our weather history database for the weather conditions in past years. The results will help you decide how hot, cold, wet, or windy it might be!

Date:

Astronomy

Jul. 23, 2013 Rise Set
Actual Time 6:27 AM CDT 8:28 PM CDT
Civil Twilight 6:00 AM CDT 8:56 PM CDT
Nautical Twilight 5:26 AM CDT 9:29 PM CDT
Astronomical Twilight 4:49 AM CDT 10:05 PM CDT
Moon 9:05 PM CDT (7/23) 7:31 AM CDT (7/23)
Length of Visible Light 14h 56m
Length of Day
14h 00m
Full, 99% of the Moon is Illuminated
Jul 23
Full
Jul 29
Last Quarter
Aug 6
New
Aug 14
First Quarter
Aug 20
Full

Hourly Weather History & Observations

Time (CDT) Temp. Heat Index Dew Point Humidity Pressure Visibility Wind Dir Wind Speed Gust Speed Precip Events Conditions
12:15 AM 80.6 °F 83.2 °F 68.0 °F 65% 29.95 in 10.0 mi South 8.1 mph - N/A   Clear
12:35 AM 80.6 °F 83.9 °F 69.8 °F 70% 29.95 in 10.0 mi South 8.1 mph - N/A   Clear
12:55 AM 80.6 °F 83.9 °F 69.8 °F 70% 29.94 in 10.0 mi South 8.1 mph - N/A   Clear
1:15 AM 80.6 °F 83.9 °F 69.8 °F 70% 29.95 in 10.0 mi South 8.1 mph - N/A   Clear
1:35 AM 82.4 °F 86.3 °F 69.8 °F 66% 29.94 in 10.0 mi South 10.4 mph - N/A   Clear
1:55 AM 80.6 °F 83.9 °F 69.8 °F 70% 29.94 in 10.0 mi South 10.4 mph - N/A   Clear
2:15 AM 80.6 °F 83.9 °F 69.8 °F 70% 29.93 in 10.0 mi South 9.2 mph - N/A   Clear
2:35 AM 80.6 °F 83.9 °F 69.8 °F 70% 29.94 in 10.0 mi SSW 9.2 mph - N/A   Clear
2:55 AM 80.6 °F 83.9 °F 69.8 °F 70% 29.93 in 10.0 mi SSW 8.1 mph - N/A   Clear
3:15 AM 80.6 °F 83.9 °F 69.8 °F 70% 29.94 in 10.0 mi SSW 8.1 mph - N/A   Clear
3:35 AM 78.8 °F - 69.8 °F 74% 29.93 in 10.0 mi SSW 8.1 mph - N/A   Clear
3:55 AM 78.8 °F - 69.8 °F 74% 29.93 in 10.0 mi SSW 8.1 mph - N/A   Clear
4:15 AM 78.8 °F - 69.8 °F 74% 29.94 in 10.0 mi SSW 8.1 mph - N/A   Clear
4:35 AM 78.8 °F - 68.0 °F 69% 29.95 in 10.0 mi SSW 6.9 mph - N/A   Clear
4:55 AM 78.8 °F - 68.0 °F 69% 29.95 in 10.0 mi SSW 6.9 mph - N/A   Clear
5:15 AM 78.8 °F - 68.0 °F 69% 29.94 in 10.0 mi SSW 9.2 mph - N/A   Clear
5:35 AM 78.8 °F - 68.0 °F 69% 29.94 in 10.0 mi SSW 9.2 mph - N/A   Clear
5:55 AM 78.8 °F - 68.0 °F 69% 29.94 in 10.0 mi SSW 9.2 mph - N/A   Clear
6:15 AM 78.8 °F - 68.0 °F 69% 29.95 in 10.0 mi SSW 9.2 mph - N/A   Clear
6:35 AM 78.8 °F - 68.0 °F 69% 29.95 in 10.0 mi SSW 9.2 mph - N/A   Clear
6:55 AM 77.0 °F - 68.0 °F 74% 29.96 in 10.0 mi SSW 6.9 mph - N/A   Clear
7:15 AM 78.8 °F - 68.0 °F 69% 29.97 in 10.0 mi SSW 6.9 mph - N/A   Clear
7:35 AM 78.8 °F - 69.8 °F 74% 29.97 in 10.0 mi SSW 8.1 mph - N/A   Clear
7:55 AM 80.6 °F 83.9 °F 69.8 °F 70% 29.98 in 10.0 mi SSW 9.2 mph - N/A   Clear
8:15 AM 80.6 °F 83.9 °F 69.8 °F 70% 29.98 in 10.0 mi SW 11.5 mph 17.3 mph N/A   Clear
8:35 AM 80.6 °F 83.9 °F 69.8 °F 70% 29.98 in 10.0 mi SW 15.0 mph 20.7 mph N/A   Partly Cloudy
8:55 AM 82.4 °F 87.2 °F 71.6 °F 70% 29.99 in 10.0 mi SW 11.5 mph 23.0 mph N/A   Partly Cloudy
9:15 AM 82.4 °F 87.2 °F 71.6 °F 70% 29.99 in 10.0 mi SW 16.1 mph 21.9 mph N/A   Partly Cloudy
9:35 AM 84.2 °F 89.6 °F 71.6 °F 66% 29.99 in 10.0 mi WSW 16.1 mph 20.7 mph N/A   Partly Cloudy
9:55 AM 84.2 °F 89.6 °F 71.6 °F 66% 29.98 in 10.0 mi WSW 15.0 mph 21.9 mph N/A   Clear
10:15 AM 86.0 °F 91.8 °F 71.6 °F 62% 29.98 in 10.0 mi SW 13.8 mph 21.9 mph N/A   Clear
10:35 AM 84.2 °F 89.6 °F 71.6 °F 66% 29.98 in 10.0 mi SW 13.8 mph 17.3 mph N/A   Clear
10:55 AM 87.8 °F 95.6 °F 73.4 °F 62% 29.98 in 10.0 mi SW 16.1 mph 21.9 mph N/A   Clear
11:15 AM 89.6 °F 96.2 °F 71.6 °F 55% 29.98 in 10.0 mi SW 15.0 mph - N/A   Partly Cloudy
11:35 AM 89.6 °F 96.2 °F 71.6 °F 55% 29.98 in 10.0 mi West 10.4 mph 17.3 mph N/A   Scattered Clouds
11:55 AM 91.4 °F 100.1 °F 73.4 °F 55% 29.98 in 10.0 mi West 10.4 mph 16.1 mph N/A   Scattered Clouds
12:15 PM 91.4 °F 100.1 °F 73.4 °F 55% 29.97 in 10.0 mi South 9.2 mph 17.3 mph N/A   Partly Cloudy
12:35 PM 91.4 °F 100.1 °F 73.4 °F 55% 29.97 in 10.0 mi SW 9.2 mph 19.6 mph N/A   Clear
12:55 PM 91.4 °F 100.1 °F 73.4 °F 55% 29.96 in 10.0 mi SSW 11.5 mph - N/A   Mostly Cloudy
1:15 PM 91.4 °F 100.1 °F 73.4 °F 55% 29.95 in 10.0 mi SSW 12.7 mph - N/A   Scattered Clouds
1:35 PM 93.2 °F 102.4 °F 73.4 °F 52% 29.95 in 10.0 mi South 9.2 mph - N/A   Partly Cloudy
1:55 PM 93.2 °F 102.4 °F 73.4 °F 52% 29.94 in 10.0 mi SSW 10.4 mph 16.1 mph N/A   Scattered Clouds
2:15 PM 95.0 °F 104.5 °F 73.4 °F 49% 29.93 in 10.0 mi SSW 12.7 mph 16.1 mph N/A   Scattered Clouds
2:35 PM 95.0 °F 104.5 °F 73.4 °F 49% 29.92 in 10.0 mi SW 9.2 mph 17.3 mph N/A   Scattered Clouds
2:55 PM 95.0 °F 104.5 °F 73.4 °F 49% 29.91 in 10.0 mi SSW 12.7 mph 19.6 mph N/A   Partly Cloudy
3:15 PM 95.0 °F 104.5 °F 73.4 °F 49% 29.90 in 10.0 mi SW 11.5 mph 18.4 mph N/A   Clear
3:35 PM 96.8 °F 107.3 °F 73.4 °F 47% 29.90 in 10.0 mi SW 12.7 mph 19.6 mph N/A   Clear
3:55 PM 96.8 °F 107.3 °F 73.4 °F 47% 29.88 in 10.0 mi SSW 18.4 mph 21.9 mph N/A   Partly Cloudy
4:15 PM 96.8 °F 107.3 °F 73.4 °F 47% 29.88 in 10.0 mi SW 17.3 mph 21.9 mph N/A   Clear
4:35 PM 96.8 °F 107.3 °F 73.4 °F 47% 29.89 in 10.0 mi SW 15.0 mph 21.9 mph N/A   Partly Cloudy
4:55 PM 91.4 °F 98.4 °F 71.6 °F 52% 29.89 in 10.0 mi SW 12.7 mph 19.6 mph N/A   Clear
5:15 PM 91.4 °F 98.4 °F 71.6 °F 52% 29.88 in 10.0 mi SW 15.0 mph - N/A   Clear
5:35 PM 91.4 °F 98.4 °F 71.6 °F 52% 29.86 in 10.0 mi SW 16.1 mph 20.7 mph N/A   Clear
5:55 PM 93.2 °F 100.5 °F 71.6 °F 49% 29.83 in 10.0 mi SSW 13.8 mph 19.6 mph N/A   Clear
6:15 PM 93.2 °F 102.4 °F 73.4 °F 52% 29.85 in 10.0 mi SSW 15.0 mph - N/A   Clear
6:35 PM 93.2 °F 102.4 °F 73.4 °F 52% 29.84 in 10.0 mi South 16.1 mph 20.7 mph N/A   Clear
6:55 PM 93.2 °F 102.4 °F 73.4 °F 52% 29.84 in 10.0 mi SSW 15.0 mph 19.6 mph N/A   Clear
7:15 PM 91.4 °F 98.4 °F 71.6 °F 52% 29.86 in 10.0 mi SSW 16.1 mph - N/A   Clear
7:35 PM 91.4 °F 98.4 °F 71.6 °F 52% 29.87 in 10.0 mi South 11.5 mph - N/A   Clear
7:55 PM 91.4 °F 98.4 °F 71.6 °F 52% 29.87 in 10.0 mi South 12.7 mph - N/A   Clear
8:15 PM 89.6 °F 96.2 °F 71.6 °F 55% 29.87 in 10.0 mi SSE 11.5 mph - N/A   Clear
8:35 PM 89.6 °F 96.2 °F 71.6 °F 55% 29.88 in 10.0 mi SSE 10.4 mph - N/A   Clear
8:55 PM 87.8 °F 93.8 °F 71.6 °F 58% 29.87 in 10.0 mi SSE 6.9 mph - N/A   Clear
9:15 PM 87.8 °F 93.8 °F 71.6 °F 58% 29.88 in 10.0 mi East 16.1 mph - N/A   Scattered Clouds
9:35 PM 80.6 °F 83.2 °F 68.0 °F 65% 29.88 in 10.0 mi ESE 15.0 mph - N/A   Mostly Cloudy
9:55 PM 78.8 °F - 68.0 °F 69% 29.88 in 10.0 mi ESE 11.5 mph - N/A   Partly Cloudy
10:15 PM 78.8 °F - 68.0 °F 69% 29.89 in 10.0 mi ESE 13.8 mph - N/A   Clear
10:35 PM 78.8 °F - 68.0 °F 69% 29.89 in 10.0 mi SE 10.4 mph - N/A   Clear
10:55 PM 78.8 °F - 66.2 °F 65% 29.90 in 10.0 mi ESE 11.5 mph - N/A   Clear
11:15 PM 77.0 °F - 66.2 °F 69% 29.89 in 10.0 mi SSE 5.8 mph - N/A   Clear
11:35 PM 77.0 °F - 66.2 °F 69% 29.88 in 10.0 mi SSE 5.8 mph - N/A   Clear
11:55 PM 77.0 °F - 66.2 °F 69% 29.88 in 10.0 mi SE 5.8 mph - N/A   Clear